When you browse on this site, cookies collect data to enhance your experience and personalize the content and advertising you see.
Visit our Privacy Policy to learn more. By continuing to use the site, you agree to this use of cookies and data.
EN

Hourly Weather Banja Luka

Today, 10 July, Friday

Time Temperature Precipitation Wind Pressure Humidity
00:00 +19°C° 0 mm 1 mps 716 mmHg 77%
01:00 +18°C° 0 mm 1 mps 716 mmHg 76%
02:00 +18°C° 0 mm 1 mps 716 mmHg 75%
03:00 +18°C° 0 mm 1 mps 716 mmHg 73%
04:00 +18°C° 0 mm 1 mps 715 mmHg 72%
05:00 +20°C° 0 mm 1 mps 716 mmHg 69%
06:00 +22°C° 0 mm 1 mps 716 mmHg 66%
07:00 +22°C° 0 mm 0 mps 716 mmHg 63%
08:00 +24°C° 0 mm 0 mps 716 mmHg 55%
09:00 +27°C° 0 mm 0 mps 717 mmHg 48%
10:00 +29°C° 0 mm 0 mps 717 mmHg 41%
11:00 +32°C° 0 mm 1 mps 717 mmHg 38%
12:00 +32°C° 0 mm 1 mps 717 mmHg 36%
13:00 +33°C° 0 mm 1 mps 716 mmHg 34%
14:00 +32°C° 0 mm 1 mps 716 mmHg 37%
15:00 +32°C° 0 mm 2 mps 716 mmHg 40%
16:00 +31°C° 0 mm 2 mps 716 mmHg 43%
17:00 +29°C° 0 mm 1 mps 715 mmHg 55%
18:00 +27°C° 0 mm 1 mps 715 mmHg 66%
19:00 +22°C° 0 mm 0 mps 714 mmHg 77%
20:00 +23°C° 0 mm 1 mps 714 mmHg 77%
21:00 +22°C° 0 mm 1 mps 714 mmHg 77%
22:00 +21°C° 0 mm 1 mps 714 mmHg 76%
23:00 +21°C° 0 mm 1 mps 714 mmHg 75%

Tomorrow, 11 July, Saturday

Time Temperature Precipitation Wind Pressure Humidity
00:00 +20°C° 0 mm 1 mps 714 mmHg 74%
01:00 +20°C° 0 mm 1 mps 714 mmHg 73%
02:00 +19°C° 0 mm 1 mps 714 mmHg 71%
03:00 +19°C° 0 mm 1 mps 714 mmHg 70%
04:00 +18°C° 0 mm 1 mps 714 mmHg 68%
05:00 +20°C° 0 mm 1 mps 714 mmHg 65%
06:00 +22°C° 0 mm 1 mps 714 mmHg 62%
07:00 +24°C° 0 mm 1 mps 714 mmHg 60%
08:00 +24°C° 0 mm 0 mps 715 mmHg 53%
09:00 +27°C° 0 mm 0 mps 715 mmHg 46%
10:00 +29°C° 0 mm 0 mps 716 mmHg 39%
11:00 +32°C° 0 mm 1 mps 715 mmHg 38%
12:00 +32°C° 0 mm 1 mps 715 mmHg 36%
13:00 +33°C° 0 mm 1 mps 715 mmHg 34%
14:00 +32°C° 0 mm 1 mps 715 mmHg 38%
15:00 +31°C° 0 mm 2 mps 715 mmHg 43%
16:00 +30°C° 0 mm 2 mps 715 mmHg 47%
17:00 +27°C° 0.4 mm 2 mps 715 mmHg 62%
18:00 +25°C° 0.4 mm 2 mps 715 mmHg 76%
19:00 +21°C° 0.4 mm 2 mps 715 mmHg 90%
20:00 +19°C° 0.5 mm 2 mps 715 mmHg 93%
21:00 +18°C° 0.5 mm 3 mps 716 mmHg 95%
22:00 +16°C° 0.5 mm 3 mps 716 mmHg 98%
23:00 +14°C° 0.1 mm 3 mps 716 mmHg 97%

Day after tomorrow, 12 July, Sunday

Time Temperature Precipitation Wind Pressure Humidity
00:00 +15°C° 0.1 mm 2 mps 717 mmHg 97%
01:00 +14°C° 0.1 mm 2 mps 717 mmHg 97%
02:00 +14°C° 0 mm 1 mps 717 mmHg 97%
03:00 +14°C° 0 mm 1 mps 717 mmHg 97%
04:00 +13°C° 0 mm 1 mps 717 mmHg 97%
05:00 +14°C° 0 mm 1 mps 717 mmHg 95%
06:00 +14°C° 0 mm 1 mps 718 mmHg 94%
07:00 +14°C° 0 mm 1 mps 718 mmHg 92%
08:00 +16°C° 0 mm 2 mps 718 mmHg 78%
09:00 +17°C° 0 mm 2 mps 718 mmHg 64%
10:00 +19°C° 0 mm 2 mps 719 mmHg 50%
11:00 +20°C° 0 mm 3 mps 719 mmHg 47%
12:00 +20°C° 0 mm 3 mps 719 mmHg 44%
13:00 +21°C° 0 mm 3 mps 719 mmHg 42%
14:00 +21°C° 0 mm 3 mps 719 mmHg 43%
15:00 +21°C° 0 mm 3 mps 718 mmHg 44%
16:00 +21°C° 0 mm 3 mps 718 mmHg 45%
17:00 +20°C° 0 mm 2 mps 718 mmHg 54%
18:00 +18°C° 0 mm 2 mps 718 mmHg 63%
19:00 +16°C° 0 mm 1 mps 718 mmHg 71%
20:00 +15°C° 0 mm 1 mps 718 mmHg 75%
21:00 +13°C° 0 mm 1 mps 718 mmHg 79%
22:00 +11°C° 0 mm 0 mps 718 mmHg 82%
23:00 +10°C° 0 mm 0 mps 718 mmHg 85%

13 July, Monday

Time Temperature Precipitation Wind Pressure Humidity
00:00 +10°C° 0 mm 0 mps 718 mmHg 88%
01:00 +10°C° 0 mm 0 mps 718 mmHg 91%
02:00 +9°C° 0 mm 0 mps 718 mmHg 92%
03:00 +9°C° 0 mm 0 mps 717 mmHg 93%
04:00 +9°C° 0 mm 0 mps 717 mmHg 93%
05:00 +12°C° 0 mm 1 mps 718 mmHg 85%
06:00 +14°C° 0 mm 1 mps 718 mmHg 77%
07:00 +16°C° 0 mm 1 mps 718 mmHg 69%
08:00 +17°C° 0 mm 2 mps 718 mmHg 61%
09:00 +19°C° 0 mm 3 mps 718 mmHg 53%
10:00 +20°C° 0 mm 3 mps 718 mmHg 45%
11:00 +21°C° 0 mm 3 mps 718 mmHg 45%
12:00 +22°C° 0 mm 4 mps 718 mmHg 45%
13:00 +22°C° 0 mm 4 mps 718 mmHg 44%
14:00 +22°C° 0 mm 4 mps 717 mmHg 47%
15:00 +22°C° 0 mm 4 mps 717 mmHg 50%
16:00 +22°C° 0 mm 4 mps 716 mmHg 53%
17:00 +20°C° 0 mm 3 mps 716 mmHg 61%
18:00 +18°C° 0 mm 2 mps 716 mmHg 70%
19:00 +18°C° 0 mm 1 mps 716 mmHg 79%
20:00 +15°C° 0 mm 1 mps 716 mmHg 82%
21:00 +14°C° 0 mm 1 mps 716 mmHg 86%
22:00 +13°C° 0 mm 1 mps 716 mmHg 89%
23:00 +13°C° 0 mm 1 mps 716 mmHg 90%

14 July, Tuesday

Time Temperature Precipitation Wind Pressure Humidity
00:00 +12°C° 0 mm 1 mps 716 mmHg 91%
01:00 +12°C° 0 mm 1 mps 716 mmHg 92%
02:00 +10°C° 0 mm 0 mps 715 mmHg 92%
03:00 +10°C° 0 mm 0 mps 715 mmHg 93%
04:00 +10°C° 0 mm 0 mps 715 mmHg 93%
05:00 +12°C° 0 mm 0 mps 715 mmHg 87%
06:00 +14°C° 0 mm 0 mps 716 mmHg 81%
07:00 +18°C° 0 mm 1 mps 716 mmHg 74%
08:00 +19°C° 0 mm 1 mps 716 mmHg 67%
09:00 +20°C° 0 mm 2 mps 716 mmHg 60%
10:00 +21°C° 0 mm 2 mps 717 mmHg 52%
11:00 +22°C° 0 mm 3 mps 716 mmHg 51%
12:00 +24°C° 0 mm 3 mps 716 mmHg 50%
13:00 +24°C° 0 mm 3 mps 716 mmHg 48%
14:00 +24°C° 0 mm 3 mps 716 mmHg 50%
15:00 +24°C° 0 mm 3 mps 716 mmHg 52%
16:00 +24°C° 0 mm 3 mps 715 mmHg 53%
17:00 +21°C° 0 mm 2 mps 715 mmHg 62%
18:00 +19°C° 0 mm 2 mps 715 mmHg 71%
19:00 +19°C° 0 mm 1 mps 715 mmHg 80%
20:00 +16°C° 0 mm 1 mps 715 mmHg 83%
21:00 +15°C° 0 mm 1 mps 715 mmHg 87%
22:00 +14°C° 0 mm 1 mps 715 mmHg 90%
23:00 +13°C° 0 mm 1 mps 715 mmHg 91%

15 July, Wednesday

Time Temperature Precipitation Wind Pressure Humidity
00:00 +13°C° 0 mm 1 mps 715 mmHg 91%
01:00 +13°C° 0 mm 1 mps 715 mmHg 92%
02:00 +12°C° 0 mm 1 mps 715 mmHg 92%
03:00 +12°C° 0 mm 1 mps 715 mmHg 93%
04:00 +12°C° 0 mm 1 mps 715 mmHg 93%
05:00 +14°C° 0 mm 1 mps 715 mmHg 86%
06:00 +15°C° 0 mm 0 mps 716 mmHg 79%
07:00 +18°C° 0 mm 0 mps 716 mmHg 73%
08:00 +20°C° 0 mm 0 mps 717 mmHg 65%
09:00 +24°C° 0 mm 1 mps 717 mmHg 57%
10:00 +26°C° 0 mm 1 mps 717 mmHg 50%
11:00 +26°C° 0 mm 1 mps 717 mmHg 47%
12:00 +27°C° 0 mm 2 mps 717 mmHg 45%
13:00 +27°C° 0 mm 2 mps 717 mmHg 42%
14:00 +27°C° 0 mm 2 mps 717 mmHg 46%
15:00 +26°C° 0 mm 2 mps 716 mmHg 49%
16:00 +26°C° 0 mm 2 mps 716 mmHg 53%
17:00 +24°C° 0.1 mm 2 mps 716 mmHg 63%
18:00 +22°C° 0.1 mm 1 mps 716 mmHg 74%
19:00 +20°C° 0.1 mm 1 mps 716 mmHg 84%
20:00 +19°C° 0.3 mm 1 mps 716 mmHg 87%
21:00 +16°C° 0.3 mm 0 mps 716 mmHg 89%
22:00 +15°C° 0.3 mm 0 mps 716 mmHg 92%
23:00 +15°C° 0 mm 0 mps 716 mmHg 92%
Show more